Time,TemperatureF,DewpointF,PressureIn,WindDirection,WindDirectionDegrees,WindSpeedMPH,WindSpeedGustMPH,Humidity,HourlyPrecipIn,Conditions,Clouds,dailyrainin,SoftwareType,DateUTC
2013-04-29 00:00:00,54.0,45.0,-100.00,South,184,3.0,10.0,72,-99.99,,,-99.99,,2013-04-29 04:00:00,
2013-04-29 00:23:00,54.0,45.0,-100.00,South,184,3.0,10.0,72,-99.99,,,-99.99,,2013-04-29 04:23:00,
2013-04-29 00:33:00,54.0,45.0,-100.00,South,184,3.0,10.0,72,-99.99,,,-99.99,,2013-04-29 04:33:00,
2013-04-29 00:43:00,54.0,45.0,-100.00,South,184,3.0,10.0,72,-99.99,,,-99.99,,2013-04-29 04:43:00,
2013-04-29 00:52:00,54.0,45.0,-100.00,South,184,3.0,10.0,72,-99.99,,,-99.99,,2013-04-29 04:52:00,
2013-04-29 01:00:00,54.0,46.0,-100.00,South,183,2.0,11.0,74,-99.99,,,-99.99,,2013-04-29 05:00:00,
2013-04-29 01:22:00,54.0,46.0,-100.00,South,183,2.0,11.0,74,-99.99,,,-99.99,,2013-04-29 05:22:00,
2013-04-29 01:32:00,54.0,46.0,-100.00,South,183,2.0,11.0,74,-99.99,,,-99.99,,2013-04-29 05:32:00,
2013-04-29 01:42:00,54.0,46.0,-100.00,South,183,2.0,11.0,74,-99.99,,,-99.99,,2013-04-29 05:42:00,
2013-04-29 01:52:00,54.0,46.0,-100.00,South,183,2.0,11.0,74,-99.99,,,-99.99,,2013-04-29 05:52:00,
2013-04-29 02:00:00,53.0,47.0,-100.00,SSW,208,4.0,11.0,78,-99.99,,,-99.99,,2013-04-29 06:00:00,
2013-04-29 02:22:00,53.0,47.0,-100.00,SSW,208,4.0,11.0,78,-99.99,,,-99.99,,2013-04-29 06:22:00,
2013-04-29 02:32:00,53.0,47.0,-100.00,SSW,208,4.0,11.0,78,-99.99,,,-99.99,,2013-04-29 06:32:00,
2013-04-29 02:42:00,53.0,47.0,-100.00,SSW,208,4.0,11.0,78,-99.99,,,-99.99,,2013-04-29 06:42:00,
2013-04-29 02:52:00,53.0,47.0,-100.00,SSW,208,4.0,11.0,78,-99.99,,,-99.99,,2013-04-29 06:52:00,
2013-04-29 03:00:00,54.0,46.0,-100.00,SSE,158,0.0,8.0,75,-99.99,,,-99.99,,2013-04-29 07:00:00,
2013-04-29 03:22:00,54.0,46.0,-100.00,SSE,158,0.0,8.0,75,-99.99,,,-99.99,,2013-04-29 07:22:00,
2013-04-29 03:32:00,54.0,46.0,-100.00,SSE,158,0.0,8.0,75,-99.99,,,-99.99,,2013-04-29 07:32:00,
2013-04-29 03:42:00,54.0,46.0,-100.00,SSE,158,0.0,8.0,75,-99.99,,,-99.99,,2013-04-29 07:42:00,
2013-04-29 03:52:00,54.0,46.0,-100.00,SSE,158,0.0,8.0,75,-99.99,,,-99.99,,2013-04-29 07:52:00,
2013-04-29 04:00:00,53.0,46.0,-100.00,SE,139,7.0,11.0,78,-99.99,,,-99.99,,2013-04-29 08:00:00,
2013-04-29 04:32:00,53.0,46.0,-100.00,SE,139,7.0,11.0,78,-99.99,,,-99.99,,2013-04-29 08:32:00,
2013-04-29 04:42:00,53.0,46.0,-100.00,SE,139,7.0,11.0,78,-99.99,,,-99.99,,2013-04-29 08:42:00,
2013-04-29 04:52:00,53.0,46.0,-100.00,SE,139,7.0,11.0,78,-99.99,,,-99.99,,2013-04-29 08:52:00,
2013-04-29 05:00:00,51.0,47.0,-100.00,SW,214,0.0,7.0,85,-99.99,,,-99.99,,2013-04-29 09:00:00,
2013-04-29 05:22:00,51.0,47.0,-100.00,SW,214,0.0,7.0,85,-99.99,,,-99.99,,2013-04-29 09:22:00,
2013-04-29 05:33:00,51.0,47.0,-100.00,SW,214,0.0,7.0,85,-99.99,,,-99.99,,2013-04-29 09:33:00,
2013-04-29 05:42:00,51.0,47.0,-100.00,SW,214,0.0,7.0,85,-99.99,,,-99.99,,2013-04-29 09:42:00,
2013-04-29 05:53:00,51.0,47.0,-100.00,SW,214,0.0,7.0,85,-99.99,,,-99.99,,2013-04-29 09:53:00,
2013-04-29 06:00:00,52.0,46.0,-100.00,South,171,2.0,11.0,81,-99.99,,,-99.99,,2013-04-29 10:00:00,
2013-04-29 06:23:00,52.0,46.0,-100.00,South,171,2.0,11.0,81,-99.99,,,-99.99,,2013-04-29 10:23:00,
2013-04-29 06:32:00,52.0,46.0,-100.00,South,171,2.0,11.0,81,-99.99,,,-99.99,,2013-04-29 10:32:00,
2013-04-29 06:42:00,52.0,46.0,-100.00,South,171,2.0,11.0,81,-99.99,,,-99.99,,2013-04-29 10:42:00,
2013-04-29 06:52:00,52.0,46.0,-100.00,South,171,2.0,11.0,81,-99.99,,,-99.99,,2013-04-29 10:52:00,
2013-04-29 07:00:00,51.0,47.0,-100.00,SSE,163,2.0,12.0,87,-99.99,,,-99.99,,2013-04-29 11:00:00,
2013-04-29 07:22:00,51.0,47.0,-100.00,SSE,163,2.0,12.0,87,-99.99,,,-99.99,,2013-04-29 11:22:00,
2013-04-29 07:32:00,51.0,47.0,-100.00,SSE,163,2.0,12.0,87,-99.99,,,-99.99,,2013-04-29 11:32:00,
2013-04-29 07:42:00,51.0,47.0,-100.00,SSE,163,2.0,12.0,87,-99.99,,,-99.99,,2013-04-29 11:42:00,
2013-04-29 07:52:00,51.0,47.0,-100.00,SSE,163,2.0,12.0,87,-99.99,,,-99.99,,2013-04-29 11:52:00,
2013-04-29 08:00:00,51.0,47.0,-100.00,ESE,108,0.0,11.0,86,-99.99,,,-99.99,,2013-04-29 12:00:00,
2013-04-29 08:22:00,51.0,47.0,-100.00,ESE,108,0.0,11.0,86,-99.99,,,-99.99,,2013-04-29 12:22:00,
2013-04-29 08:32:00,51.0,47.0,-100.00,ESE,108,0.0,11.0,86,-99.99,,,-99.99,,2013-04-29 12:32:00,
2013-04-29 08:42:00,51.0,47.0,-100.00,ESE,108,0.0,11.0,86,-99.99,,,-99.99,,2013-04-29 12:42:00,
2013-04-29 08:52:00,51.0,47.0,-100.00,ESE,108,0.0,11.0,86,-99.99,,,-99.99,,2013-04-29 12:52:00,
2013-04-29 09:00:00,52.0,47.0,-100.00,South,184,4.0,10.0,85,-99.99,,,-99.99,,2013-04-29 13:00:00,
2013-04-29 09:22:00,52.0,47.0,-100.00,South,184,4.0,10.0,85,-99.99,,,-99.99,,2013-04-29 13:22:00,
2013-04-29 09:32:00,52.0,47.0,-100.00,South,184,4.0,10.0,85,-99.99,,,-99.99,,2013-04-29 13:32:00,
2013-04-29 09:42:00,52.0,47.0,-100.00,South,184,4.0,10.0,85,-99.99,,,-99.99,,2013-04-29 13:42:00,
2013-04-29 09:52:00,52.0,47.0,-100.00,South,184,4.0,10.0,85,-99.99,,,-99.99,,2013-04-29 13:52:00,
2013-04-29 10:00:00,52.0,48.0,-100.00,SE,134,4.0,8.0,87,-99.99,,,-99.99,,2013-04-29 14:00:00,
2013-04-29 10:22:00,52.0,48.0,-100.00,SE,134,4.0,8.0,87,-99.99,,,-99.99,,2013-04-29 14:22:00,
2013-04-29 10:32:00,52.0,48.0,-100.00,SE,134,4.0,8.0,87,-99.99,,,-99.99,,2013-04-29 14:32:00,
2013-04-29 10:42:00,52.0,48.0,-100.00,SE,134,4.0,8.0,87,-99.99,,,-99.99,,2013-04-29 14:42:00,
2013-04-29 10:52:00,52.0,48.0,-100.00,SE,134,4.0,8.0,87,-99.99,,,-99.99,,2013-04-29 14:52:00,
2013-04-29 11:00:00,52.0,49.0,-100.00,SSE,163,5.0,11.0,89,-99.99,,,-99.99,,2013-04-29 15:00:00,
2013-04-29 11:22:00,52.0,49.0,-100.00,SSE,163,5.0,11.0,89,-99.99,,,-99.99,,2013-04-29 15:22:00,
2013-04-29 11:33:00,52.0,49.0,-100.00,SSE,163,5.0,11.0,89,-99.99,,,-99.99,,2013-04-29 15:33:00,
2013-04-29 11:43:00,52.0,49.0,-100.00,SSE,163,5.0,11.0,89,-99.99,,,-99.99,,2013-04-29 15:43:00,
2013-04-29 11:53:00,52.0,49.0,-100.00,SSE,163,5.0,11.0,89,-99.99,,,-99.99,,2013-04-29 15:53:00,
2013-04-29 12:00:00,52.0,49.0,-100.00,SSE,150,6.0,12.0,89,-99.99,,,-99.99,,2013-04-29 16:00:00,
2013-04-29 12:23:00,52.0,49.0,-100.00,SSE,150,6.0,12.0,89,-99.99,,,-99.99,,2013-04-29 16:23:00,
2013-04-29 12:33:00,52.0,49.0,-100.00,SSE,150,6.0,12.0,89,-99.99,,,-99.99,,2013-04-29 16:33:00,
2013-04-29 12:42:00,52.0,49.0,-100.00,SSE,150,6.0,12.0,89,-99.99,,,-99.99,,2013-04-29 16:42:00,
2013-04-29 12:52:00,52.0,49.0,-100.00,SSE,150,6.0,12.0,89,-99.99,,,-99.99,,2013-04-29 16:52:00,
2013-04-29 13:00:00,52.0,48.0,-100.00,SE,136,4.0,16.0,86,-99.99,,,-99.99,,2013-04-29 17:00:00,
2013-04-29 13:23:00,52.0,48.0,-100.00,SE,136,4.0,16.0,86,-99.99,,,-99.99,,2013-04-29 17:23:00,
2013-04-29 13:32:00,52.0,48.0,-100.00,SE,136,4.0,16.0,86,-99.99,,,-99.99,,2013-04-29 17:32:00,
2013-04-29 13:42:00,52.0,48.0,-100.00,SE,136,4.0,16.0,86,-99.99,,,-99.99,,2013-04-29 17:42:00,
2013-04-29 13:52:00,52.0,48.0,-100.00,SE,136,4.0,16.0,86,-99.99,,,-99.99,,2013-04-29 17:52:00,
2013-04-29 14:00:00,53.0,49.0,-100.00,SE,135,5.0,12.0,84,-99.99,,,-99.99,,2013-04-29 18:00:00,
2013-04-29 14:32:00,53.0,49.0,-100.00,SE,135,5.0,12.0,84,-99.99,,,-99.99,,2013-04-29 18:32:00,
2013-04-29 14:42:00,53.0,49.0,-100.00,SE,135,5.0,12.0,84,-99.99,,,-99.99,,2013-04-29 18:42:00,
2013-04-29 14:52:00,53.0,49.0,-100.00,SE,135,5.0,12.0,84,-99.99,,,-99.99,,2013-04-29 18:52:00,
2013-04-29 15:00:00,53.0,49.0,-100.00,SE,140,5.0,11.0,85,-99.99,,,-99.99,,2013-04-29 19:00:00,
2013-04-29 15:32:00,53.0,49.0,-100.00,SE,140,5.0,11.0,85,-99.99,,,-99.99,,2013-04-29 19:32:00,
2013-04-29 15:42:00,53.0,49.0,-100.00,SE,140,5.0,11.0,85,-99.99,,,-99.99,,2013-04-29 19:42:00,
2013-04-29 15:52:00,53.0,49.0,-100.00,SE,140,5.0,11.0,85,-99.99,,,-99.99,,2013-04-29 19:52:00,
2013-04-29 16:00:00,53.0,48.0,-100.00,ESE,122,5.0,9.0,84,-99.99,,,-99.99,,2013-04-29 20:00:00,
2013-04-29 16:22:00,53.0,48.0,-100.00,ESE,122,5.0,9.0,84,-99.99,,,-99.99,,2013-04-29 20:22:00,
2013-04-29 16:32:00,53.0,48.0,-100.00,ESE,122,5.0,9.0,84,-99.99,,,-99.99,,2013-04-29 20:32:00,
2013-04-29 16:43:00,53.0,48.0,-100.00,ESE,122,5.0,9.0,84,-99.99,,,-99.99,,2013-04-29 20:43:00,
2013-04-29 16:52:00,53.0,48.0,-100.00,ESE,122,5.0,9.0,84,-99.99,,,-99.99,,2013-04-29 20:52:00,
2013-04-29 17:00:00,53.0,49.0,-100.00,SE,142,1.0,11.0,85,-99.99,,,-99.99,,2013-04-29 21:00:00,
2013-04-29 17:33:00,53.0,49.0,-100.00,SE,142,1.0,11.0,85,-99.99,,,-99.99,,2013-04-29 21:33:00,
2013-04-29 17:43:00,53.0,49.0,-100.00,SE,142,1.0,11.0,85,-99.99,,,-99.99,,2013-04-29 21:43:00,
2013-04-29 17:53:00,53.0,49.0,-100.00,SE,142,1.0,11.0,85,-99.99,,,-99.99,,2013-04-29 21:53:00,
2013-04-29 18:00:00,52.0,49.0,-100.00,East,96,2.0,9.0,89,-99.99,,,-99.99,,2013-04-29 22:00:00,
2013-04-29 18:23:00,52.0,49.0,-100.00,East,96,2.0,9.0,89,-99.99,,,-99.99,,2013-04-29 22:23:00,
2013-04-29 18:32:00,52.0,49.0,-100.00,East,96,2.0,9.0,89,-99.99,,,-99.99,,2013-04-29 22:32:00,
2013-04-29 18:42:00,52.0,49.0,-100.00,East,96,2.0,9.0,89,-99.99,,,-99.99,,2013-04-29 22:42:00,
2013-04-29 18:53:00,52.0,49.0,-100.00,East,96,2.0,9.0,89,-99.99,,,-99.99,,2013-04-29 22:53:00,
2013-04-29 19:00:00,52.0,49.0,-100.00,SSE,154,0.0,8.0,90,-99.99,,,-99.99,,2013-04-29 23:00:00,
2013-04-29 19:22:00,52.0,49.0,-100.00,SSE,154,0.0,8.0,90,-99.99,,,-99.99,,2013-04-29 23:22:00,
2013-04-29 19:32:00,52.0,49.0,-100.00,SSE,154,0.0,8.0,90,-99.99,,,-99.99,,2013-04-29 23:32:00,
2013-04-29 19:42:00,52.0,49.0,-100.00,SSE,154,0.0,8.0,90,-99.99,,,-99.99,,2013-04-29 23:42:00,
2013-04-29 19:53:00,52.0,49.0,-100.00,SSE,154,0.0,8.0,90,-99.99,,,-99.99,,2013-04-29 23:53:00,
2013-04-29 20:00:00,51.0,48.0,-100.00,East,83,0.0,6.0,90,-99.99,,,-99.99,,2013-04-30 00:00:00,
2013-04-29 20:32:00,51.0,48.0,-100.00,East,83,0.0,6.0,90,-99.99,,,-99.99,,2013-04-30 00:32:00,
2013-04-29 20:42:00,51.0,48.0,-100.00,East,83,0.0,6.0,90,-99.99,,,-99.99,,2013-04-30 00:42:00,
2013-04-29 20:52:00,51.0,48.0,-100.00,East,83,0.0,6.0,90,-99.99,,,-99.99,,2013-04-30 00:52:00,
2013-04-29 21:00:00,51.0,48.0,-100.00,East,79,2.0,7.0,90,-99.99,,,-99.99,,2013-04-30 01:00:00,
2013-04-29 21:22:00,51.0,48.0,-100.00,East,79,2.0,7.0,90,-99.99,,,-99.99,,2013-04-30 01:22:00,
2013-04-29 21:32:00,51.0,48.0,-100.00,East,79,2.0,7.0,90,-99.99,,,-99.99,,2013-04-30 01:32:00,
2013-04-29 21:42:00,51.0,48.0,-100.00,East,79,2.0,7.0,90,-99.99,,,-99.99,,2013-04-30 01:42:00,
2013-04-29 21:52:00,51.0,48.0,-100.00,East,79,2.0,7.0,90,-99.99,,,-99.99,,2013-04-30 01:52:00,
2013-04-29 22:00:00,51.0,48.0,-100.00,East,93,3.0,10.0,91,-99.99,,,-99.99,,2013-04-30 02:00:00,
2013-04-29 22:21:00,51.0,48.0,-100.00,East,93,3.0,10.0,91,-99.99,,,-99.99,,2013-04-30 02:21:00,
2013-04-29 22:32:00,51.0,48.0,-100.00,East,93,3.0,10.0,91,-99.99,,,-99.99,,2013-04-30 02:32:00,
2013-04-29 22:42:00,51.0,48.0,-100.00,East,93,3.0,10.0,91,-99.99,,,-99.99,,2013-04-30 02:42:00,
2013-04-29 22:52:00,51.0,48.0,-100.00,East,93,3.0,10.0,91,-99.99,,,-99.99,,2013-04-30 02:52:00,
2013-04-29 23:00:00,50.0,48.0,-100.00,ESE,120,4.0,12.0,93,-99.99,,,-99.99,,2013-04-30 03:00:00,
2013-04-29 23:22:00,50.0,48.0,-100.00,ESE,120,4.0,12.0,93,-99.99,,,-99.99,,2013-04-30 03:22:00,
2013-04-29 23:33:00,50.0,48.0,-100.00,ESE,120,4.0,12.0,93,-99.99,,,-99.99,,2013-04-30 03:33:00,
2013-04-29 23:43:00,50.0,48.0,-100.00,ESE,120,4.0,12.0,93,-99.99,,,-99.99,,2013-04-30 03:43:00,
2013-04-29 23:53:00,50.0,48.0,-100.00,ESE,120,4.0,12.0,93,-99.99,,,-99.99,,2013-04-30 03:53:00,